| time (UTC) | temp F | wind direction | speed MPH | gust MPH | rain 1hr in | rain 24hr in | rain mn in | humidity % | barometer mb |
| 20260831141919 | 81 | 143 | 1.0 | 2.0 | 0.00 | 0.00 | 0.00 | 86 | 1020.1 |
| 20260831141420 | 80 | 168 | 0.0 | 0.0 | 0.00 | 0.00 | 0.00 | 86 | 1020.1 |
| 20260831141156 | 80 | 109 | 0.0 | 2.0 | 0.00 | 0.00 | 0.00 | 87 | 1020.2 |
| 20260831140921 | 80 | 150 | 1.0 | 2.0 | 0.00 | 0.00 | 0.00 | 87 | 1020.2 |
| 20260831140419 | 80 | 145 | 0.0 | 0.0 | 0.00 | 0.00 | 0.00 | 88 | 1020.2 |
| 20260831140158 | 80 | 145 | 0.0 | 1.0 | 0.00 | 0.00 | 0.00 | 88 | 1020.2 |
| 20260831135920 | 80 | 131 | 0.0 | 0.0 | 0.00 | 0.00 | 0.00 | 88 | 1020.2 |
| 20260831135421 | 79 | 185 | 0.0 | 2.0 | 0.00 | 0.00 | 0.00 | 89 | 1020.2 |
| 20260831135156 | 79 | 203 | 0.0 | 0.0 | 0.00 | 0.00 | 0.00 | 89 | 1020.2 |
| 20260831134920 | 79 | 179 | 0.0 | 0.0 | 0.00 | 0.00 | 0.00 | 89 | 1020.2 |
| 20260831134419 | 79 | 217 | 0.0 | 1.0 | 0.00 | 0.00 | 0.00 | 89 | 1020.2 |
| 20260831134156 | 79 | 165 | 1.0 | 3.0 | 0.00 | 0.00 | 0.00 | 90 | 1020.3 |
| 20260831133919 | 78 | 203 | 0.0 | 0.0 | 0.00 | 0.00 | 0.00 | 90 | 1020.3 |
| 20260831133420 | 78 | 182 | 0.0 | 2.0 | 0.00 | 0.00 | 0.00 | 91 | 1020.3 |
| 20260831133155 | 78 | 161 | 1.0 | 3.0 | 0.00 | 0.00 | 0.00 | 92 | 1020.3 |
| 20260831132919 | 78 | 121 | 1.0 | 1.0 | 0.00 | 0.00 | 0.00 | 92 | 1020.3 |
| 20260831132419 | 77 | 141 | 3.0 | 3.0 | 0.00 | 0.00 | 0.00 | 94 | 1020.2 |
| 20260831132157 | 77 | 164 | 1.0 | 2.0 | 0.00 | 0.00 | 0.00 | 95 | 1020.2 |
| 20260831131919 | 77 | 145 | 3.0 | 3.0 | 0.00 | 0.00 | 0.00 | 95 | 1020.2 |
| 20260831131420 | 76 | 128 | 0.0 | 3.0 | 0.00 | 0.00 | 0.00 | 97 | 1020.2 |
| 20260831131155 | 76 | 100 | 2.0 | 2.0 | 0.00 | 0.00 | 0.00 | 98 | 1020.1 |
| 20260831130920 | 76 | 89 | 4.0 | 4.0 | 0.00 | 0.00 | 0.00 | 98 | 1020.1 |
| 20260831130419 | 76 | 168 | 0.0 | 2.0 | 0.00 | 0.00 | 0.00 | 99 | 1020.1 |
| 20260831130159 | 75 | 136 | 0.0 | 1.0 | 0.00 | 0.00 | 0.00 | 100 | 1020.1 |
| 20260831125920 | 75 | 123 | 0.0 | 2.0 | 0.00 | 0.00 | 0.00 | 100 | 1020.1 |
| 20260831125419 | 75 | 131 | 1.0 | 4.0 | 0.00 | 0.00 | 0.00 | 100 | 1020.1 |
| 20260831125157 | 75 | 117 | 1.0 | 3.0 | 0.00 | 0.00 | 0.00 | 100 | 1020.1 |
| 20260831124920 | 75 | 167 | 0.0 | 3.0 | 0.00 | 0.00 | 0.00 | 100 | 1020.1 |
| 20260831124419 | 74 | 131 | 3.0 | 3.0 | 0.00 | 0.00 | 0.00 | 100 | 1020.1 |
| 20260831124156 | 74 | 154 | 2.0 | 2.0 | 0.00 | 0.00 | 0.00 | 100 | 1019.9 |
| 20260831123919 | 74 | 164 | 0.0 | 2.0 | 0.00 | 0.00 | 0.00 | 100 | 1019.9 |
| 20260831123420 | 74 | 164 | 2.0 | 3.0 | 0.00 | 0.00 | 0.00 | 100 | 1019.9 |
| 20260831123200 | 74 | 134 | 2.0 | 3.0 | 0.00 | 0.00 | 0.00 | 100 | 1019.9 |
| 20260831122921 | 74 | 138 | 0.0 | 2.0 | 0.00 | 0.00 | 0.00 | 100 | 1019.9 |
| 20260831122419 | 73 | 148 | 0.0 | 1.0 | 0.00 | 0.00 | 0.00 | 100 | 1019.6 |
| 20260831122156 | 73 | 150 | 0.0 | 0.0 | 0.00 | 0.00 | 0.00 | 100 | 1019.6 |
| 20260831121920 | 73 | 134 | 0.0 | 1.0 | 0.00 | 0.00 | 0.00 | 100 | 1019.6 |
| 20260831121420 | 73 | 120 | 0.0 | 0.0 | 0.00 | 0.00 | 0.00 | 100 | 1019.6 |
| 20260831121158 | 73 | 117 | 0.0 | 0.0 | 0.00 | 0.00 | 0.00 | 100 | 1019.5 |
| 20260831120920 | 73 | 120 | 1.0 | 1.0 | 0.00 | 0.00 | 0.00 | 100 | 1019.5 |
| 20260831120421 | 72 | 114 | 0.0 | 0.0 | 0.00 | 0.00 | 0.00 | 100 | 1019.5 |
| 20260831120156 | 72 | 117 | 1.0 | 1.0 | 0.00 | 0.00 | 0.00 | 100 | 1019.5 |
| 20260831115919 | 72 | 130 | 1.0 | 1.0 | 0.00 | 0.00 | 0.00 | 100 | 1019.5 |
| 20260831115419 | 72 | 124 | 1.0 | 3.0 | 0.00 | 0.00 | 0.00 | 100 | 1019.2 |
| 20260831115158 | 72 | 162 | 0.0 | 2.0 | 0.00 | 0.00 | 0.00 | 100 | 1019.2 |
| 20260831114920 | 72 | 126 | 1.0 | 2.0 | 0.00 | 0.00 | 0.00 | 100 | 1019.2 |
| 20260831114420 | 72 | 121 | 1.0 | 2.0 | 0.00 | 0.00 | 0.00 | 100 | 1019.2 |
| 20260831114200 | 72 | 143 | 1.0 | 1.0 | 0.00 | 0.00 | 0.00 | 100 | 1019.0 |
| 20260831113919 | 72 | 151 | 1.0 | 2.0 | 0.00 | 0.00 | 0.00 | 100 | 1019.0 |
| 20260831113420 | 72 | 150 | 1.0 | 1.0 | 0.00 | 0.00 | 0.00 | 100 | 1019.0 |
| 20260831113157 | 72 | 147 | 1.0 | 1.0 | 0.00 | 0.00 | 0.00 | 100 | 1019.0 |
| 20260831112920 | 72 | 161 | 1.0 | 2.0 | 0.00 | 0.00 | 0.00 | 100 | 1019.0 |
| 20260831112421 | 72 | 140 | 1.0 | 2.0 | 0.00 | 0.00 | 0.00 | 100 | 1018.7 |
| 20260831112200 | 72 | 134 | 1.0 | 1.0 | 0.00 | 0.00 | 0.00 | 100 | 1018.7 |
| 20260831111920 | 72 | 123 | 1.0 | 1.0 | 0.00 | 0.00 | 0.00 | 100 | 1018.7 |
| 20260831111420 | 72 | 133 | 1.0 | 1.0 | 0.00 | 0.00 | 0.00 | 100 | 1018.7 |
| 20260831111155 | 72 | 124 | 1.0 | 1.0 | 0.00 | 0.00 | 0.00 | 100 | 1018.3 |
| 20260831110921 | 72 | 147 | 0.0 | 2.0 | 0.00 | 0.00 | 0.00 | 100 | 1018.3 |
| 20260831110419 | 72 | 141 | 1.0 | 1.0 | 0.00 | 0.00 | 0.00 | 100 | 1018.3 |
| 20260831110157 | 73 | 128 | 0.0 | 2.0 | 0.00 | 0.00 | 0.00 | 100 | 1018.3 |
| 20260831105920 | 73 | 158 | 0.0 | 3.0 | 0.00 | 0.00 | 0.00 | 100 | 1018.3 |
| 20260831105421 | 73 | 106 | 1.0 | 1.0 | 0.00 | 0.00 | 0.00 | 100 | 1018.2 |
| 20260831105156 | 73 | 144 | 1.0 | 1.0 | 0.00 | 0.00 | 0.00 | 100 | 1018.2 |
| 20260831104919 | 73 | 114 | 1.0 | 2.0 | 0.00 | 0.00 | 0.00 | 100 | 1018.2 |
| 20260831104421 | 73 | 140 | 2.0 | 2.0 | 0.00 | 0.00 | 0.00 | 100 | 1018.2 |
| 20260831104156 | 73 | 151 | 1.0 | 1.0 | 0.00 | 0.00 | 0.00 | 100 | 1018.1 |
| 20260831103920 | 73 | 141 | 0.0 | 3.0 | 0.00 | 0.00 | 0.00 | 100 | 1018.1 |
| 20260831103419 | 73 | 147 | 1.0 | 2.0 | 0.00 | 0.00 | 0.00 | 100 | 1018.1 |
| 20260831103155 | 73 | 151 | 0.0 | 1.0 | 0.00 | 0.00 | 0.00 | 100 | 1018.1 |
| 20260831102920 | 73 | 148 | 0.0 | 1.0 | 0.00 | 0.00 | 0.00 | 100 | 1018.1 |
| 20260831102421 | 74 | 148 | 0.0 | 0.0 | 0.00 | 0.00 | 0.00 | 99 | 1018.0 |
| 20260831102311 | 74 | 120 | 0.0 | 2.0 | 0.00 | 0.00 | 0.00 | 99 | 1018.0 |
| 20260831102158 | 74 | 120 | 0.0 | 2.0 | 0.00 | 0.00 | 0.00 | 99 | 1018.0 |
| 20260831101919 | 74 | 164 | 1.0 | 2.0 | 0.00 | 0.00 | 0.00 | 99 | 1018.0 |
| 20260831101420 | 74 | 157 | 0.0 | 1.0 | 0.00 | 0.00 | 0.00 | 98 | 1018.0 |
| 20260831101156 | 74 | 161 | 1.0 | 1.0 | 0.00 | 0.00 | 0.00 | 98 | 1017.9 |
| 20260831100921 | 74 | 150 | 3.0 | 3.0 | 0.00 | 0.00 | 0.00 | 98 | 1017.9 |
| 20260831100419 | 74 | 154 | 1.0 | 2.0 | 0.00 | 0.00 | 0.00 | 98 | 1017.9 |
| 20260831100255 | 74 | 150 | 0.0 | 2.0 | 0.00 | 0.00 | 0.00 | 98 | 1017.9 |
| 20260831100156 | 74 | 150 | 0.0 | 2.0 | 0.00 | 0.00 | 0.00 | 98 | 1017.9 |
| 20260831095920 | 74 | 164 | 0.0 | 3.0 | 0.00 | 0.00 | 0.00 | 98 | 1017.9 |
| 20260831095421 | 74 | 141 | 1.0 | 2.0 | 0.00 | 0.00 | 0.00 | 97 | 1017.9 |
| 20260831095157 | 74 | 143 | 3.0 | 3.0 | 0.00 | 0.00 | 0.00 | 97 | 1017.9 |
| 20260831094919 | 74 | 155 | 2.0 | 2.0 | 0.00 | 0.00 | 0.00 | 97 | 1017.9 |
| 20260831094419 | 74 | 147 | 2.0 | 2.0 | 0.00 | 0.00 | 0.00 | 97 | 1017.9 |
| 20260831094229 | 74 | 152 | 0.0 | 2.0 | 0.00 | 0.00 | 0.00 | 97 | 1017.9 |
| 20260831094156 | 74 | 152 | 0.0 | 2.0 | 0.00 | 0.00 | 0.00 | 97 | 1017.9 |
| 20260831093919 | 74 | 145 | 0.0 | 2.0 | 0.00 | 0.00 | 0.00 | 97 | 1017.9 |
| 20260831093420 | 74 | 136 | 0.0 | 2.0 | 0.00 | 0.00 | 0.00 | 97 | 1017.9 |
| 20260831093157 | 74 | 143 | 1.0 | 2.0 | 0.00 | 0.00 | 0.00 | 97 | 1017.9 |
| 20260831092919 | 74 | 112 | 0.0 | 0.0 | 0.00 | 0.00 | 0.00 | 97 | 1017.9 |
| 20260831092419 | 74 | 117 | 0.0 | 0.0 | 0.00 | 0.00 | 0.00 | 97 | 1017.9 |
| 20260831092243 | 74 | 106 | 0.0 | 0.0 | 0.00 | 0.00 | 0.00 | 97 | 1017.9 |
| 20260831092156 | 74 | 106 | 0.0 | 0.0 | 0.00 | 0.00 | 0.00 | 97 | 1017.9 |
| 20260831091920 | 74 | 123 | 0.0 | 0.0 | 0.00 | 0.00 | 0.00 | 97 | 1017.9 |
| 20260831091419 | 74 | 130 | 0.0 | 0.0 | 0.00 | 0.00 | 0.00 | 98 | 1017.9 |
| 20260831091158 | 74 | 124 | 0.0 | 1.0 | 0.00 | 0.00 | 0.00 | 98 | 1017.7 |
| 20260831090920 | 74 | 126 | 0.0 | 1.0 | 0.00 | 0.00 | 0.00 | 98 | 1017.7 |
| 20260831090420 | 74 | 121 | 1.0 | 2.0 | 0.00 | 0.00 | 0.00 | 98 | 1017.7 |
| 20260831090157 | 74 | 113 | 0.0 | 0.0 | 0.00 | 0.00 | 0.00 | 98 | 1017.7 |
| 20260831085919 | 74 | 113 | 0.0 | 0.0 | 0.00 | 0.00 | 0.00 | 98 | 1017.7 |
| 20260831085419 | 74 | 113 | 0.0 | 1.0 | 0.00 | 0.00 | 0.00 | 98 | 1017.6 |
| 20260831085157 | 74 | 114 | 1.0 | 1.0 | 0.00 | 0.00 | 0.00 | 98 | 1017.6 |
| 20260831084920 | 74 | 123 | 0.0 | 0.0 | 0.00 | 0.00 | 0.00 | 98 | 1017.6 |
| 20260831084419 | 74 | 107 | 0.0 | 0.0 | 0.00 | 0.00 | 0.00 | 98 | 1017.6 |
| 20260831084157 | 74 | 107 | 0.0 | 0.0 | 0.00 | 0.00 | 0.00 | 98 | 1017.5 |
| 20260831083919 | 74 | 116 | 0.0 | 0.0 | 0.00 | 0.00 | 0.00 | 98 | 1017.5 |
| 20260831083420 | 74 | 113 | 0.0 | 0.0 | 0.00 | 0.00 | 0.00 | 98 | 1017.5 |
| 20260831083158 | 74 | 112 | 0.0 | 3.0 | 0.00 | 0.00 | 0.00 | 98 | 1017.5 |
| 20260831082919 | 74 | 138 | 2.0 | 2.0 | 0.00 | 0.00 | 0.00 | 98 | 1017.5 |
| 20260831082419 | 74 | 193 | 1.0 | 2.0 | 0.00 | 0.00 | 0.00 | 98 | 1017.4 |
| 20260831082156 | 74 | 143 | 1.0 | 1.0 | 0.00 | 0.00 | 0.00 | 98 | 1017.4 |
| 20260831081920 | 74 | 155 | 0.0 | 2.0 | 0.00 | 0.00 | 0.00 | 98 | 1017.4 |
| 20260831081419 | 74 | 127 | 0.0 | 0.0 | 0.00 | 0.00 | 0.00 | 98 | 1017.4 |
| 20260831081156 | 74 | 145 | 0.0 | 0.0 | 0.00 | 0.00 | 0.00 | 98 | 1017.5 |
| 20260831080919 | 74 | 147 | 0.0 | 0.0 | 0.00 | 0.00 | 0.00 | 97 | 1017.5 |
| 20260831080420 | 74 | 158 | 0.0 | 0.0 | 0.00 | 0.00 | 0.00 | 98 | 1017.5 |
| 20260831080158 | 74 | 157 | 0.0 | 0.0 | 0.00 | 0.00 | 0.00 | 98 | 1017.5 |
| 20260831075919 | 74 | 150 | 0.0 | 0.0 | 0.00 | 0.00 | 0.00 | 98 | 1017.5 |
| 20260831075419 | 74 | 148 | 0.0 | 0.0 | 0.00 | 0.00 | 0.00 | 98 | 1017.5 |
| 20260831075156 | 74 | 144 | 0.0 | 0.0 | 0.00 | 0.00 | 0.00 | 98 | 1017.5 |
| 20260831074920 | 74 | 143 | 0.0 | 0.0 | 0.00 | 0.00 | 0.00 | 98 | 1017.5 |
| 20260831074419 | 74 | 130 | 0.0 | 1.0 | 0.00 | 0.00 | 0.00 | 97 | 1017.5 |
| 20260831074156 | 74 | 151 | 0.0 | 2.0 | 0.00 | 0.00 | 0.00 | 97 | 1017.5 |
| 20260831073919 | 74 | 162 | 0.0 | 1.0 | 0.00 | 0.00 | 0.00 | 97 | 1017.5 |
| 20260831073419 | 74 | 126 | 1.0 | 3.0 | 0.00 | 0.00 | 0.00 | 97 | 1017.5 |
| 20260831073156 | 74 | 148 | 1.0 | 3.0 | 0.00 | 0.00 | 0.00 | 97 | 1017.5 |
| 20260831072920 | 74 | 160 | 0.0 | 2.0 | 0.00 | 0.00 | 0.00 | 97 | 1017.5 |
| 20260831072420 | 74 | 160 | 0.0 | 3.0 | 0.00 | 0.00 | 0.00 | 97 | 1017.4 |
| 20260831072157 | 74 | 160 | 1.0 | 3.0 | 0.00 | 0.00 | 0.00 | 97 | 1017.4 |
| 20260831071919 | 75 | 148 | 1.0 | 2.0 | 0.00 | 0.00 | 0.00 | 97 | 1017.4 |
| 20260831071420 | 75 | 147 | 0.0 | 1.0 | 0.00 | 0.00 | 0.00 | 96 | 1017.4 |
| 20260831071155 | 75 | 150 | 0.0 | 1.0 | 0.00 | 0.00 | 0.00 | 96 | 1017.5 |
| 20260831070919 | 75 | 151 | 1.0 | 2.0 | 0.00 | 0.00 | 0.00 | 96 | 1017.5 |
| 20260831070419 | 75 | 154 | 0.0 | 3.0 | 0.00 | 0.00 | 0.00 | 96 | 1017.5 |
| 20260831070157 | 75 | 158 | 0.0 | 0.0 | 0.00 | 0.00 | 0.00 | 96 | 1017.5 |
| 20260831065920 | 75 | 179 | 1.0 | 1.0 | 0.00 | 0.00 | 0.00 | 96 | 1017.5 |
| 20260831065420 | 75 | 143 | 0.0 | 4.0 | 0.00 | 0.00 | 0.00 | 95 | 1017.5 |
| 20260831065157 | 75 | 138 | 2.0 | 2.0 | 0.00 | 0.00 | 0.00 | 95 | 1017.5 |
| 20260831064919 | 75 | 147 | 2.0 | 3.0 | 0.00 | 0.00 | 0.00 | 95 | 1017.5 |
| 20260831064419 | 75 | 143 | 1.0 | 1.0 | 0.00 | 0.00 | 0.00 | 94 | 1017.5 |
| 20260831064155 | 75 | 175 | 1.0 | 2.0 | 0.00 | 0.00 | 0.00 | 94 | 1017.5 |
| 20260831063919 | 75 | 124 | 0.0 | 2.0 | 0.00 | 0.00 | 0.00 | 94 | 1017.5 |
| 20260831063420 | 75 | 144 | 0.0 | 3.0 | 0.00 | 0.00 | 0.00 | 94 | 1017.5 |
| 20260831063156 | 75 | 130 | 1.0 | 2.0 | 0.00 | 0.00 | 0.00 | 94 | 1017.5 |
| 20260831062919 | 75 | 106 | 1.0 | 2.0 | 0.00 | 0.00 | 0.00 | 94 | 1017.5 |
| 20260831062420 | 75 | 123 | 1.0 | 3.0 | 0.00 | 0.00 | 0.00 | 93 | 1017.5 |
| 20260831062157 | 75 | 143 | 2.0 | 2.0 | 0.00 | 0.00 | 0.00 | 93 | 1017.5 |
| 20260831061919 | 75 | 162 | 0.0 | 3.0 | 0.00 | 0.00 | 0.00 | 93 | 1017.5 |
| 20260831061420 | 76 | 119 | 0.0 | 0.0 | 0.00 | 0.00 | 0.00 | 93 | 1017.5 |
| 20260831061157 | 76 | 141 | 0.0 | 0.0 | 0.00 | 0.00 | 0.00 | 93 | 1017.7 |
| 20260831060920 | 76 | 133 | 3.0 | 3.0 | 0.00 | 0.00 | 0.00 | 93 | 1017.7 |
| 20260831060419 | 76 | 127 | 1.0 | 1.0 | 0.00 | 0.00 | 0.00 | 92 | 1017.7 |
| 20260831060155 | 76 | 124 | 2.0 | 2.0 | 0.00 | 0.00 | 0.00 | 92 | 1017.7 |
| 20260831055920 | 76 | 128 | 2.0 | 2.0 | 0.00 | 0.00 | 0.00 | 92 | 1017.7 |
| 20260831055419 | 76 | 128 | 0.0 | 2.0 | 0.00 | 0.00 | 0.00 | 92 | 1017.6 |
| 20260831055156 | 76 | 117 | 1.0 | 2.0 | 0.00 | 0.00 | 0.00 | 92 | 1017.6 |
| 20260831054919 | 76 | 143 | 0.0 | 1.0 | 0.00 | 0.00 | 0.00 | 92 | 1017.6 |
| 20260831054420 | 76 | 157 | 2.0 | 3.0 | 0.00 | 0.00 | 0.00 | 92 | 1017.6 |
| 20260831054158 | 76 | 110 | 1.0 | 2.0 | 0.00 | 0.00 | 0.00 | 92 | 1017.6 |
| 20260831053920 | 76 | 85 | 2.0 | 2.0 | 0.00 | 0.00 | 0.00 | 91 | 1017.6 |
| 20260831053419 | 76 | 131 | 2.0 | 2.0 | 0.00 | 0.00 | 0.00 | 91 | 1017.6 |
| 20260831053156 | 76 | 109 | 0.0 | 3.0 | 0.00 | 0.00 | 0.00 | 91 | 1017.6 |
| 20260831052919 | 76 | 123 | 2.0 | 3.0 | 0.00 | 0.00 | 0.00 | 91 | 1017.6 |
| 20260831052420 | 76 | 127 | 2.0 | 2.0 | 0.00 | 0.00 | 0.00 | 91 | 1017.5 |
| 20260831052155 | 76 | 134 | 3.0 | 3.0 | 0.00 | 0.00 | 0.00 | 91 | 1017.5 |
| 20260831051919 | 76 | 138 | 1.0 | 3.0 | 0.00 | 0.00 | 0.00 | 91 | 1017.5 |
| 20260831051419 | 76 | 114 | 2.0 | 3.0 | 0.00 | 0.00 | 0.00 | 91 | 1017.5 |
| 20260831051157 | 77 | 124 | 1.0 | 3.0 | 0.00 | 0.00 | 0.00 | 91 | 1017.6 |
| 20260831050920 | 77 | 114 | 2.0 | 2.0 | 0.00 | 0.00 | 0.00 | 91 | 1017.6 |
| 20260831050420 | 77 | 121 | 2.0 | 2.0 | 0.00 | 0.00 | 0.00 | 90 | 1017.6 |
| 20260831050159 | 77 | 151 | 1.0 | 3.0 | 0.00 | 0.00 | 0.00 | 90 | 1017.6 |
| 20260831045920 | 77 | 124 | 1.0 | 1.0 | 0.00 | 0.00 | 0.00 | 89 | 1017.6 |
| 20260831045419 | 77 | 134 | 2.0 | 2.0 | 0.00 | 0.00 | 0.00 | 89 | 1017.6 |
| 20260831045156 | 77 | 143 | 3.0 | 3.0 | 0.00 | 0.00 | 0.00 | 89 | 1017.6 |
| 20260831044920 | 77 | 130 | 1.0 | 1.0 | 0.00 | 0.00 | 0.00 | 88 | 1017.6 |
| 20260831044420 | 78 | 126 | 1.0 | 2.0 | 0.00 | 0.00 | 0.00 | 87 | 1017.6 |
| 20260831044156 | 78 | 120 | 0.0 | 2.0 | 0.00 | 0.00 | 0.00 | 87 | 1017.7 |
| 20260831043919 | 78 | 128 | 1.0 | 3.0 | 0.00 | 0.00 | 0.00 | 87 | 1017.7 |
| 20260831043420 | 78 | 107 | 1.0 | 2.0 | 0.00 | 0.00 | 0.00 | 87 | 1017.7 |
| 20260831043158 | 78 | 102 | 2.0 | 2.0 | 0.00 | 0.00 | 0.00 | 87 | 1017.7 |
| 20260831042920 | 78 | 88 | 1.0 | 1.0 | 0.00 | 0.00 | 0.00 | 87 | 1017.7 |
| 20260831042420 | 78 | 95 | 1.0 | 3.0 | 0.00 | 0.00 | 0.00 | 87 | 1017.8 |
| 20260831042156 | 78 | 109 | 1.0 | 2.0 | 0.00 | 0.00 | 0.00 | 86 | 1017.8 |
| 20260831041921 | 78 | 100 | 1.0 | 1.0 | 0.00 | 0.00 | 0.00 | 86 | 1017.8 |
| 20260831041419 | 78 | 92 | 0.0 | 2.0 | 0.00 | 0.00 | 0.00 | 86 | 1017.8 |
| 20260831041157 | 78 | 103 | 1.0 | 3.0 | 0.00 | 0.00 | 0.00 | 86 | 1017.8 |
| 20260831040920 | 78 | 110 | 2.0 | 3.0 | 0.00 | 0.00 | 0.00 | 86 | 1017.8 |
| 20260831040420 | 78 | 92 | 2.0 | 2.0 | 0.00 | 0.00 | 0.00 | 86 | 1017.8 |
| 20260831040159 | 78 | 110 | 2.0 | 2.0 | 0.00 | 0.00 | 0.00 | 86 | 1017.8 |
| 20260831035920 | 78 | 109 | 3.0 | 3.0 | 0.00 | 0.00 | 0.00 | 86 | 1017.8 |
| 20260831035421 | 78 | 88 | 1.0 | 3.0 | 0.00 | 0.00 | 0.00 | 86 | 1017.9 |
| 20260831035156 | 78 | 83 | 1.0 | 3.0 | 0.00 | 0.00 | 0.00 | 86 | 1017.9 |
| 20260831034920 | 78 | 90 | 3.0 | 4.0 | 0.00 | 0.00 | 0.00 | 87 | 1017.9 |
| 20260831034420 | 78 | 65 | 2.0 | 3.0 | 0.00 | 0.00 | 0.00 | 87 | 1017.9 |
| 20260831034156 | 78 | 82 | 3.0 | 3.0 | 0.00 | 0.00 | 0.00 | 87 | 1017.9 |
| 20260831033921 | 78 | 85 | 2.0 | 3.0 | 0.00 | 0.00 | 0.00 | 87 | 1017.9 |
| 20260831033419 | 78 | 113 | 2.0 | 3.0 | 0.00 | 0.00 | 0.00 | 87 | 1017.9 |
| 20260831033157 | 78 | 97 | 2.0 | 2.0 | 0.00 | 0.00 | 0.00 | 87 | 1017.9 |
| 20260831032920 | 78 | 100 | 1.0 | 3.0 | 0.00 | 0.00 | 0.00 | 87 | 1017.9 |
| 20260831032421 | 78 | 99 | 1.0 | 2.0 | 0.00 | 0.00 | 0.00 | 87 | 1017.8 |
| 20260831032231 | 78 | 110 | 1.0 | 3.0 | 0.00 | 0.00 | 0.00 | 87 | 1017.8 |
| 20260831032156 | 78 | 110 | 1.0 | 3.0 | 0.00 | 0.00 | 0.00 | 87 | 1017.8 |
| 20260831031919 | 78 | 121 | 2.0 | 2.0 | 0.00 | 0.00 | 0.00 | 87 | 1017.8 |
| 20260831031420 | 78 | 96 | 1.0 | 2.0 | 0.00 | 0.00 | 0.00 | 87 | 1017.8 |
| 20260831031155 | 78 | 96 | 2.0 | 3.0 | 0.00 | 0.00 | 0.00 | 87 | 1017.9 |
| 20260831030919 | 78 | 120 | 1.0 | 3.0 | 0.00 | 0.00 | 0.00 | 87 | 1017.9 |
| 20260831030420 | 78 | 97 | 2.0 | 3.0 | 0.00 | 0.00 | 0.00 | 87 | 1017.9 |
| 20260831030155 | 78 | 102 | 2.0 | 3.0 | 0.00 | 0.00 | 0.00 | 87 | 1017.9 |
| 20260831025919 | 78 | 95 | 0.0 | 1.0 | 0.00 | 0.00 | 0.00 | 86 | 1017.9 |
| 20260831025419 | 78 | 119 | 2.0 | 2.0 | 0.00 | 0.00 | 0.00 | 86 | 1017.8 |
| 20260831025157 | 78 | 141 | 2.0 | 2.0 | 0.00 | 0.00 | 0.00 | 86 | 1017.8 |
| 20260831024920 | 78 | 131 | 0.0 | 2.0 | 0.00 | 0.00 | 0.00 | 86 | 1017.8 |
| 20260831024419 | 78 | 117 | 2.0 | 2.0 | 0.00 | 0.00 | 0.00 | 86 | 1017.8 |
| 20260831024156 | 78 | 114 | 2.0 | 3.0 | 0.00 | 0.00 | 0.00 | 86 | 1017.8 |
| 20260831023919 | 78 | 116 | 1.0 | 3.0 | 0.00 | 0.00 | 0.00 | 86 | 1017.8 |
| 20260831023420 | 78 | 102 | 1.0 | 3.0 | 0.00 | 0.00 | 0.00 | 86 | 1017.8 |
| 20260831023156 | 78 | 130 | 1.0 | 3.0 | 0.00 | 0.00 | 0.00 | 86 | 1017.8 |
| 20260831022919 | 78 | 120 | 1.0 | 2.0 | 0.00 | 0.00 | 0.00 | 86 | 1017.8 |
| 20260831022419 | 78 | 147 | 1.0 | 2.0 | 0.00 | 0.00 | 0.00 | 86 | 1017.6 |
| 20260831022158 | 79 | 127 | 0.0 | 3.0 | 0.00 | 0.00 | 0.00 | 86 | 1017.6 |
| 20260831021920 | 79 | 144 | 0.0 | 2.0 | 0.00 | 0.00 | 0.00 | 86 | 1017.6 |
| 20260831021310 | 79 | 133 | 2.0 | 2.0 | 0.00 | 0.00 | 0.00 | 86 | 1017.6 |
| 20260831020808 | 79 | 148 | 0.0 | 2.0 | 0.00 | 0.00 | 0.00 | 86 | 1017.6 |
| 20260831020309 | 79 | 117 | 3.0 | 3.0 | 0.00 | 0.00 | 0.00 | 86 | 1017.6 |
| 20260831015810 | 79 | 137 | 0.0 | 1.0 | 0.00 | 0.00 | 0.00 | 86 | 1017.5 |
| 20260831015308 | 79 | 158 | 2.0 | 2.0 | 0.00 | 0.00 | 0.00 | 86 | 1017.5 |
| 20260831014809 | 79 | 150 | 2.0 | 2.0 | 0.00 | 0.00 | 0.00 | 86 | 1017.5 |
| 20260831014310 | 79 | 119 | 0.0 | 2.0 | 0.00 | 0.00 | 0.00 | 86 | 1017.2 |
| 20260831013808 | 80 | 113 | 0.0 | 1.0 | 0.00 | 0.00 | 0.00 | 86 | 1017.2 |
| 20260831013310 | 80 | 148 | 0.0 | 1.0 | 0.00 | 0.00 | 0.00 | 85 | 1017.2 |
| 20260831012809 | 80 | 152 | 2.0 | 2.0 | 0.00 | 0.00 | 0.00 | 85 | 1017.0 |
| 20260831012309 | 80 | 130 | 1.0 | 2.0 | 0.00 | 0.00 | 0.00 | 84 | 1017.0 |
| 20260831011810 | 80 | 134 | 1.0 | 2.0 | 0.00 | 0.00 | 0.00 | 83 | 1017.0 |
| 20260831011310 | 80 | 154 | 2.0 | 2.0 | 0.00 | 0.00 | 0.00 | 83 | 1017.1 |
| 20260831010808 | 80 | 124 | 1.0 | 1.0 | 0.00 | 0.00 | 0.00 | 82 | 1017.1 |
| 20260831010309 | 81 | 151 | 2.0 | 2.0 | 0.00 | 0.00 | 0.00 | 82 | 1017.1 |
| 20260831005809 | 81 | 137 | 1.0 | 2.0 | 0.00 | 0.00 | 0.00 | 81 | 1017.1 |
| 20260831005310 | 81 | 86 | 1.0 | 2.0 | 0.00 | 0.00 | 0.00 | 81 | 1017.1 |
| 20260831004808 | 81 | 123 | 1.0 | 2.0 | 0.00 | 0.00 | 0.00 | 80 | 1017.1 |
| 20260831004309 | 81 | 121 | 1.0 | 1.0 | 0.00 | 0.00 | 0.00 | 80 | 1017.1 |
| 20260831003810 | 81 | 104 | 2.0 | 2.0 | 0.00 | 0.00 | 0.00 | 80 | 1017.1 |
| 20260831003308 | 81 | 106 | 3.0 | 3.0 | 0.00 | 0.00 | 0.00 | 80 | 1017.1 |
| 20260831002809 | 82 | 104 | 1.0 | 2.0 | 0.00 | 0.00 | 0.00 | 80 | 1017.1 |
| 20260831002310 | 82 | 97 | 1.0 | 2.0 | 0.00 | 0.00 | 0.00 | 80 | 1017.1 |
| 20260831001808 | 82 | 95 | 1.0 | 2.0 | 0.00 | 0.00 | 0.00 | 80 | 1017.1 |
| 20260831001309 | 82 | 88 | 2.0 | 2.0 | 0.00 | 0.00 | 0.00 | 79 | 1017.1 |
| 20260831000809 | 83 | 89 | 1.0 | 1.0 | 0.00 | 0.00 | 0.00 | 79 | 1017.1 |
| 20260831000310 | 83 | 96 | 2.0 | 2.0 | 0.00 | 0.00 | 0.00 | 78 | 1017.1 |
| 20260830235808 | 83 | 96 | 0.0 | 1.0 | 0.00 | 0.00 | 0.00 | 77 | 1017.1 |
| 20260830235308 | 83 | 96 | 2.0 | 2.0 | 0.00 | 0.00 | 0.00 | 76 | 1017.1 |
| 20260830234809 | 84 | 83 | 0.0 | 0.0 | 0.00 | 0.00 | 0.00 | 76 | 1017.1 |
| 20260830234309 | 84 | 97 | 2.0 | 3.0 | 0.00 | 0.00 | 0.00 | 76 | 1017.0 |
| 20260830233808 | 84 | 68 | 2.0 | 2.0 | 0.00 | 0.00 | 0.00 | 75 | 1017.0 |
| 20260830233309 | 84 | 93 | 2.0 | 3.0 | 0.00 | 0.00 | 0.00 | 75 | 1017.0 |
| 20260830232810 | 84 | 104 | 1.0 | 2.0 | 0.00 | 0.00 | 0.00 | 74 | 1016.9 |
| 20260830232308 | 84 | 56 | 1.0 | 2.0 | 0.00 | 0.00 | 0.00 | 74 | 1016.9 |
| 20260830231809 | 84 | 80 | 1.0 | 3.0 | 0.00 | 0.00 | 0.00 | 74 | 1016.9 |
| 20260830231310 | 85 | 96 | 2.0 | 2.0 | 0.00 | 0.00 | 0.00 | 74 | 1016.9 |
| 20260830230808 | 85 | 110 | 2.0 | 3.0 | 0.00 | 0.00 | 0.00 | 73 | 1016.9 |
| 20260830230308 | 85 | 79 | 1.0 | 4.0 | 0.00 | 0.00 | 0.00 | 74 | 1016.9 |
| 20260830225809 | 85 | 69 | 1.0 | 2.0 | 0.00 | 0.00 | 0.00 | 73 | 1017.0 |
| 20260830225309 | 85 | 165 | 1.0 | 2.0 | 0.00 | 0.00 | 0.00 | 72 | 1017.0 |
| 20260830224810 | 85 | 54 | 2.0 | 2.0 | 0.00 | 0.00 | 0.00 | 71 | 1017.0 |
| 20260830224309 | 85 | 90 | 1.0 | 3.0 | 0.00 | 0.00 | 0.00 | 71 | 1016.8 |
| 20260830223809 | 86 | 90 | 1.0 | 3.0 | 0.00 | 0.00 | 0.00 | 70 | 1016.8 |
| 20260830223309 | 86 | 58 | 2.0 | 3.0 | 0.00 | 0.00 | 0.00 | 70 | 1016.8 |
| 20260830222809 | 86 | 4 | 1.0 | 2.0 | 0.00 | 0.00 | 0.00 | 72 | 1016.9 |
| 20260830222309 | 86 | 80 | 0.0 | 2.0 | 0.00 | 0.00 | 0.00 | 72 | 1016.9 |
| 20260830221810 | 86 | 83 | 0.0 | 0.0 | 0.00 | 0.00 | 0.00 | 70 | 1016.9 |
| 20260830221308 | 86 | 114 | 0.0 | 2.0 | 0.00 | 0.00 | 0.00 | 69 | 1016.8 |
| 20260830220809 | 86 | 82 | 0.0 | 1.0 | 0.00 | 0.00 | 0.00 | 69 | 1016.8 |
| 20260830220310 | 86 | 141 | 2.0 | 3.0 | 0.00 | 0.00 | 0.00 | 68 | 1016.8 |
| 20260830215808 | 86 | 106 | 2.0 | 3.0 | 0.00 | 0.00 | 0.00 | 71 | 1017.0 |
| 20260830215310 | 86 | 82 | 1.0 | 3.0 | 0.00 | 0.00 | 0.00 | 66 | 1017.0 |
| 20260830214810 | 86 | 100 | 0.0 | 2.0 | 0.00 | 0.00 | 0.00 | 69 | 1017.0 |
| 20260830214308 | 86 | 127 | 0.0 | 1.0 | 0.00 | 0.00 | 0.00 | 69 | 1017.0 |
| 20260830213809 | 86 | 110 | 2.0 | 5.0 | 0.00 | 0.00 | 0.00 | 68 | 1017.0 |
| 20260830213310 | 86 | 42 | 2.0 | 2.0 | 0.00 | 0.00 | 0.00 | 67 | 1017.0 |
| 20260830212808 | 86 | 14 | 0.0 | 1.0 | 0.00 | 0.00 | 0.00 | 68 | 1017.1 |
| 20260830212309 | 86 | 66 | 2.0 | 5.0 | 0.00 | 0.00 | 0.00 | 69 | 1017.1 |
| 20260830211810 | 87 | 80 | 0.0 | 3.0 | 0.00 | 0.00 | 0.00 | 69 | 1017.1 |
| 20260830211308 | 87 | 86 | 0.0 | 2.0 | 0.00 | 0.00 | 0.00 | 67 | 1017.1 |
| 20260830210809 | 88 | 83 | 2.0 | 6.0 | 0.00 | 0.00 | 0.00 | 66 | 1017.1 |
| 20260830210310 | 88 | 79 | 1.0 | 3.0 | 0.00 | 0.00 | 0.00 | 65 | 1017.1 |
| 20260830205808 | 88 | 127 | 0.0 | 2.0 | 0.00 | 0.00 | 0.00 | 64 | 1017.3 |
| 20260830205309 | 88 | 17 | 1.0 | 1.0 | 0.00 | 0.00 | 0.00 | 64 | 1017.3 |
| 20260830204809 | 88 | 96 | 1.0 | 2.0 | 0.00 | 0.00 | 0.00 | 61 | 1017.3 |
| 20260830204308 | 89 | 88 | 4.0 | 5.0 | 0.00 | 0.00 | 0.00 | 64 | 1017.5 |
| 20260830203810 | 89 | 134 | 5.0 | 6.0 | 0.00 | 0.00 | 0.00 | 64 | 1017.5 |
| 20260830203309 | 88 | 335 | 0.0 | 0.0 | 0.00 | 0.00 | 0.00 | 66 | 1017.5 |
| 20260830202808 | 88 | 171 | 1.0 | 1.0 | 0.00 | 0.00 | 0.00 | 65 | 1017.7 |
| 20260830202309 | 87 | 121 | 1.0 | 2.0 | 0.00 | 0.00 | 0.00 | 67 | 1017.7 |
| 20260830201809 | 87 | 116 | 1.0 | 3.0 | 0.00 | 0.00 | 0.00 | 67 | 1017.7 |
| 20260830201308 | 87 | 48 | 2.0 | 2.0 | 0.00 | 0.00 | 0.00 | 67 | 1017.8 |
| 20260830200809 | 87 | 66 | 3.0 | 3.0 | 0.00 | 0.00 | 0.00 | 68 | 1017.8 |
| 20260830200309 | 87 | 169 | 1.0 | 5.0 | 0.00 | 0.00 | 0.00 | 68 | 1017.8 |
| 20260830195808 | 87 | 138 | 1.0 | 2.0 | 0.00 | 0.00 | 0.00 | 68 | 1017.9 |
| 20260830195309 | 87 | 150 | 1.0 | 4.0 | 0.00 | 0.00 | 0.00 | 65 | 1017.9 |
| 20260830194809 | 87 | 45 | 3.0 | 6.0 | 0.00 | 0.00 | 0.00 | 67 | 1017.9 |
| 20260830194308 | 87 | 112 | 3.0 | 3.0 | 0.00 | 0.00 | 0.00 | 67 | 1018.0 |
| 20260830193810 | 87 | 40 | 3.0 | 5.0 | 0.00 | 0.00 | 0.00 | 67 | 1018.0 |
| 20260830193309 | 87 | 86 | 2.0 | 4.0 | 0.00 | 0.00 | 0.00 | 68 | 1018.0 |
| 20260830192808 | 87 | 121 | 2.0 | 2.0 | 0.00 | 0.00 | 0.00 | 69 | 1018.1 |
| 20260830192309 | 87 | 141 | 6.0 | 6.0 | 0.00 | 0.00 | 0.00 | 69 | 1018.1 |
| 20260830191809 | 87 | 120 | 6.0 | 6.0 | 0.00 | 0.00 | 0.00 | 69 | 1018.1 |
| 20260830191308 | 87 | 176 | 1.0 | 2.0 | 0.00 | 0.00 | 0.00 | 69 | 1018.4 |
| 20260830190809 | 86 | 150 | 4.0 | 6.0 | 0.00 | 0.00 | 0.00 | 71 | 1018.4 |
| 20260830190310 | 86 | 119 | 2.0 | 2.0 | 0.00 | 0.00 | 0.00 | 70 | 1018.4 |
| 20260830185808 | 86 | 119 | 5.0 | 6.0 | 0.00 | 0.00 | 0.00 | 70 | 1018.6 |
| 20260830185309 | 86 | 186 | 0.0 | 1.0 | 0.00 | 0.00 | 0.00 | 70 | 1018.6 |
| 20260830184809 | 86 | 148 | 2.0 | 4.0 | 0.00 | 0.00 | 0.00 | 75 | 1018.6 |
| 20260830184308 | 86 | 55 | 1.0 | 3.0 | 0.00 | 0.00 | 0.00 | 72 | 1018.8 |
| 20260830183809 | 86 | 167 | 1.0 | 4.0 | 0.00 | 0.00 | 0.00 | 71 | 1018.8 |
| 20260830183309 | 86 | 145 | 3.0 | 3.0 | 0.00 | 0.00 | 0.00 | 71 | 1018.8 |
| 20260830182809 | 86 | 104 | 4.0 | 4.0 | 0.00 | 0.00 | 0.00 | 73 | 1019.0 |
| 20260830182309 | 85 | 178 | 2.0 | 2.0 | 0.00 | 0.00 | 0.00 | 72 | 1019.0 |
| 20260830181808 | 86 | 253 | 0.0 | 1.0 | 0.00 | 0.00 | 0.00 | 74 | 1019.0 |
| 20260830181309 | 86 | 215 | 1.0 | 1.0 | 0.00 | 0.00 | 0.00 | 74 | 1019.1 |
| 20260830180809 | 86 | 27 | 0.0 | 1.0 | 0.00 | 0.00 | 0.00 | 73 | 1019.1 |
| 20260830180308 | 86 | 68 | 0.0 | 1.0 | 0.00 | 0.00 | 0.00 | 74 | 1019.1 |
| 20260830175714 | 85 | 102 | 1.0 | 1.0 | 0.00 | 0.00 | 0.00 | 76 | 1019.5 |
| 20260830175214 | 85 | 71 | 3.0 | 4.0 | 0.00 | 0.00 | 0.00 | 72 | 1019.5 |
| 20260830174713 | 84 | 114 | 3.0 | 4.0 | 0.00 | 0.00 | 0.00 | 76 | 1019.5 |
| 20260830174214 | 84 | 49 | 0.0 | 0.0 | 0.00 | 0.00 | 0.00 | 79 | 1019.7 |
| 20260830173714 | 84 | 116 | 2.0 | 3.0 | 0.00 | 0.00 | 0.00 | 77 | 1019.7 |
| 20260830173213 | 84 | 113 | 1.0 | 3.0 | 0.00 | 0.00 | 0.00 | 76 | 1019.7 |
| 20260830172713 | 84 | 109 | 1.0 | 3.0 | 0.00 | 0.00 | 0.00 | 75 | 1019.9 |
| 20260830172213 | 84 | 49 | 2.0 | 6.0 | 0.00 | 0.00 | 0.00 | 76 | 1019.9 |
| 20260830171714 | 84 | 106 | 3.0 | 3.0 | 0.00 | 0.00 | 0.00 | 78 | 1019.9 |
| 20260830171213 | 84 | 58 | 0.0 | 0.0 | 0.00 | 0.00 | 0.00 | 76 | 1019.8 |
| 20260830170713 | 84 | 69 | 2.0 | 3.0 | 0.00 | 0.00 | 0.00 | 77 | 1019.8 |
| 20260830170214 | 84 | 123 | 4.0 | 4.0 | 0.00 | 0.00 | 0.00 | 77 | 1019.8 |
| 20260830165714 | 84 | 65 | 2.0 | 3.0 | 0.00 | 0.00 | 0.00 | 76 | 1020.0 |
| 20260830165214 | 84 | 95 | 5.0 | 6.0 | 0.00 | 0.00 | 0.00 | 75 | 1020.0 |
| 20260830164713 | 84 | 52 | 1.0 | 9.0 | 0.00 | 0.00 | 0.00 | 77 | 1020.0 |
| 20260830164214 | 84 | 239 | 0.0 | 2.0 | 0.00 | 0.00 | 0.00 | 78 | 1020.1 |
| 20260830163714 | 84 | 147 | 2.0 | 5.0 | 0.00 | 0.00 | 0.00 | 78 | 1020.1 |
| 20260830163213 | 83 | 88 | 2.0 | 7.0 | 0.00 | 0.00 | 0.00 | 78 | 1020.1 |
| 20260830162621 | 84 | 230 | 0.0 | 1.0 | 0.00 | 0.00 | 0.00 | 79 | 1020.2 |
| 20260830162122 | 84 | 112 | 3.0 | 4.0 | 0.00 | 0.00 | 0.00 | 80 | 1020.2 |
| 20260830161621 | 83 | 104 | 5.0 | 5.0 | 0.00 | 0.00 | 0.00 | 80 | 1020.2 |
| 20260830161122 | 83 | 282 | 0.0 | 1.0 | 0.00 | 0.00 | 0.00 | 80 | 1020.3 |
| 20260830160621 | 83 | 171 | 1.0 | 1.0 | 0.00 | 0.00 | 0.00 | 79 | 1020.3 |
| 20260830160121 | 82 | 128 | 3.0 | 3.0 | 0.00 | 0.00 | 0.00 | 79 | 1020.3 |
| 20260830155622 | 82 | 210 | 1.0 | 4.0 | 0.00 | 0.00 | 0.00 | 82 | 1020.4 |
| 20260830155121 | 82 | 130 | 3.0 | 5.0 | 0.00 | 0.00 | 0.00 | 81 | 1020.4 |
| 20260830154620 | 82 | 124 | 4.0 | 5.0 | 0.00 | 0.00 | 0.00 | 85 | 1020.4 |
| 20260830154121 | 81 | 90 | 1.0 | 3.0 | 0.00 | 0.00 | 0.00 | 87 | 1020.4 |
| 20260830153621 | 81 | 90 | 3.0 | 4.0 | 0.00 | 0.00 | 0.00 | 86 | 1020.4 |
| 20260830153121 | 81 | 189 | 3.0 | 3.0 | 0.00 | 0.00 | 0.00 | 86 | 1020.4 |
| 20260830152622 | 81 | 193 | 1.0 | 1.0 | 0.00 | 0.00 | 0.00 | 86 | 1020.6 |
| 20260830152121 | 81 | 172 | 0.0 | 3.0 | 0.00 | 0.00 | 0.00 | 86 | 1020.6 |
| 20260830151621 | 81 | 195 | 1.0 | 6.0 | 0.00 | 0.00 | 0.00 | 85 | 1020.6 |
| 20260830151122 | 82 | 130 | 3.0 | 3.0 | 0.00 | 0.00 | 0.00 | 84 | 1020.4 |
| 20260830150621 | 82 | 147 | 6.0 | 6.0 | 0.00 | 0.00 | 0.00 | 84 | 1020.4 |
| 20260830150120 | 82 | 202 | 2.0 | 2.0 | 0.00 | 0.00 | 0.00 | 84 | 1020.4 |
| 20260830145621 | 81 | 136 | 0.0 | 5.0 | 0.00 | 0.00 | 0.00 | 85 | 1020.3 |
| 20260830145121 | 81 | 140 | 2.0 | 5.0 | 0.00 | 0.00 | 0.00 | 84 | 1020.3 |
| 20260830144620 | 82 | 148 | 3.0 | 4.0 | 0.00 | 0.00 | 0.00 | 86 | 1020.3 |
| 20260830144121 | 82 | 113 | 0.0 | 0.0 | 0.00 | 0.00 | 0.00 | 85 | 1020.4 |
| 20260830143621 | 82 | 161 | 0.0 | 0.0 | 0.00 | 0.00 | 0.00 | 85 | 1020.4 |
| 20260830143120 | 82 | 171 | 0.0 | 2.0 | 0.00 | 0.00 | 0.00 | 85 | 1020.4 |
| 20260830142622 | 82 | 157 | 0.0 | 3.0 | 0.00 | 0.00 | 0.00 | 85 | 1020.4 |
| 20260830142121 | 81 | 133 | 2.0 | 3.0 | 0.00 | 0.00 | 0.00 | 86 | 1020.4 |